Wind_Speed
4 6 6 6 8 8 9 8 8 8 8 9 8 9 9 8 8 8 8 9 9 10 10 11 12 13 13 15 16 16 16 16 14 14 12 11 11 12 12 14 15 13 10
6 5 5 6 8 9 8 9 8 8 8 9 9 10 10 10 9 9 8 8 8 8 8 8 9 9 11 13 14 16 16 18 18 17 17 18 16 15 13 13 13 15 13
10 7 7 9 8 8 8 8 8 9 9 9 9 10 8 9 9 9 9 9 9 10 10 9 9 9 9 10 12 14 16 17 16 18 20 22 21 21 19 17 15 14 14
11 9 10 10 10 11 10 11 11 12 12 12 12 11 10 12 11 10 10 11 10 11 12 12 12 12 12 12 12 12 13 15 16 17 17 19 20 22 22 23 21 18 15
11 12 12 12 13 14 14 14 13 14 14 14 13 13 12 13 14 13 13 13 13 13 14 14 14 15 15 15 15 14 13 14 14 16 18 19 17 19 19 19 22 23 19
13 13 13 13 14 14 13 12 11 12 13 13 13 14 13 14 14 15 14 14 15 15 17 16 16 17 17 18 17 16 17 16 15 16 16 18 19 19 18 18 19 21 23
13 13 15 16 17 16 14 14 13 13 14 14 13 13 13 14 15 14 14 14 15 16 17 17 18 18 18 18 18 18 19 19 19 19 19 19 19 19 19 20 21 21 22
15 15 16 18 19 18 18 17 16 14 14 14 14 14 15 15 14 13 14 14 14 15 16 16 17 17 17 17 18 18 19 19 20 21 22 23 22 21 20 21 23 23 22
16 17 17 17 19 19 21 21 18 16 15 14 14 15 15 16 16 16 16 16 16 17 16 17 18 18 18 19 19 20 20 22 22 23 23 25 27 26 24 23 24 25 25
19 19 18 19 21 22 22 22 20 18 16 16 15 14 14 15 16 17 16 16 16 16 17 18 19 18 19 19 20 21 22 24 24 24 25 27 28 27 28 28 27 27 27
22 22 21 21 22 23 24 24 22 20 20 19 17 15 15 16 16 16 16 16 18 18 20 20 20 20 21 21 21 22 23 24 24 25 25 27 28 28 29 29 30 32 31
22 24 24 24 24 25 25 26 25 23 23 22 21 19 18 17 18 18 18 19 19 20 21 22 22 22 21 20 22 23 24 24 24 24 23 25 26 27 29 29 28 33 36
22 24 25 26 26 26 27 27 27 25 24 23 23 23 22 21 21 20 20 21 21 22 22 23 22 23 23 23 23 23 22 22 22 22 22 23 24 26 29 32 33 33 38
24 24 26 27 29 28 27 28 28 28 26 25 25 26 25 25 23 23 23 23 23 23 24 24 24 23 24 24 24 22 21 20 19 18 19 21 23 24 27 32 34 36 37
27 25 24 27 28 29 28 29 29 29 30 29 28 28 28 27 26 25 25 25 25 26 25 26 25 25 25 24 23 22 19 19 19 20 20 22 25 28 31 34 37 38 39
31 29 27 28 29 31 31 31 30 31 30 31 30 31 31 31 30 28 27 28 27 27 28 28 27 26 24 23 21 20 19 19 21 24 25 28 30 33 36 38 40 41 42
33 32 29 29 30 31 33 33 32 32 33 32 33 33 34 33 32 31 30 30 30 30 30 29 28 27 24 22 20 21 23 23 23 28 29 29 30 34 38 41 44 46 46
37 34 32 32 32 31 33 33 34 35 36 37 36 36 36 36 35 34 32 31 32 32 32 31 31 28 26 23 23 24 26 27 29 31 33 32 34 37 40 44 48 49 47
37 37 35 34 34 32 33 34 36 37 38 39 38 37 37 37 36 35 33 33 33 32 33 32 31 30 27 27 27 25 27 30 30 31 31 32 35 37 41 45 47 46 45
35 36 34 33 32 31 31 32 33 36 38 38 39 39 38 37 37 36 34 34 33 33 33 33 32 30 30 30 29 27 29 31 32 31 29 31 35 38 40 42 44 45 45
32 32 27 27 26 27 25 27 31 35 37 39 40 40 40 39 38 37 36 34 34 34 33 33 34 30 31 34 34 31 29 28 31 32 32 33 35 38 39 38 41 43 45
24 23 21 22 21 20 21 25 30 34 37 39 40 41 40 39 38 39 36 35 35 34 34 34 32 32 32 34 37 36 39 36 34 32 33 35 36 37 42 44 43 44 47
19 19 21 22 17 15 18 23 28 32 35 38 38 39 39 39 39 38 36 36 35 35 35 33 31 32 33 32 36 37 42 42 44 40 36 38 40 41 43 47 50 51 51
17 21 23 24 17 14 18 25 28 29 34 35 37 38 37 39 40 38 38 39 37 36 34 33 32 33 35 36 36 35 37 41 45 50 46 40 41 44 45 48 52 54 55
19 19 24 29 28 25 21 29 29 28 31 34 35 35 37 40 40 39 40 39 37 34 33 33 34 34 36 37 38 38 37 38 41 45 49 47 47 47 50 49 52 55 54
19 24 24 30 32 32 27 31 33 31 30 32 34 36 38 39 39 39 39 37 36 34 33 35 36 36 37 37 37 37 39 39 40 42 47 46 52 50 53 52 55 57 60
Wind_Direction
245 218 208 211 210 209 211 207 203 199 199 206 212 215 214 222 238 251 252 261 270 274 277 278 276 277 277 279 280 279 281 283 283 288 294 297 303 313 325 334 343 336 327
238 238 239 234 219 215 216 215 215 215 213 222 220 223 227 224 225 229 241 252 261 269 275 277 281 278 272 270 271 272 273 273 275 277 280 284 289 291 301 311 322 329 325
241 240 251 253 245 239 229 230 237 239 242 246 247 252 255 256 250 247 247 247 252 263 265 265 270 278 276 271 272 273 272 272 272 274 275 276 280 282 287 294 301 308 317
250 243 248 252 256 256 257 257 260 261 262 264 266 267 264 265 264 264 263 264 264 267 268 267 267 269 273 275 278 275 276 280 282 279 277 276 277 281 281 284 288 293 298
250 248 247 249 250 251 251 259 263 267 270 268 267 264 260 257 260 262 266 272 274 271 269 270 270 273 274 277 279 281 281 280 280 281 282 282 281 279 283 280 280 279 285
257 258 260 256 256 258 256 256 263 271 274 270 261 256 255 256 258 263 268 271 271 269 265 265 265 265 267 269 270 271 272 270 272 273 274 276 280 282 281 282 276 276 274
260 258 259 259 258 258 263 270 277 281 281 275 263 258 256 256 259 262 261 260 261 262 264 268 271 273 273 272 269 269 271 275 275 271 271 270 270 270 276 276 278 276 273
265 260 258 255 256 263 268 275 279 278 275 269 265 258 255 254 254 256 258 261 264 265 265 265 265 266 267 267 267 265 265 265 269 275 275 272 270 269 266 270 271 273 272
263 265 265 260 255 257 264 272 274 276 274 265 254 252 249 250 253 254 258 260 263 265 269 270 269 268 268 264 265 265 265 263 261 262 264 273 276 274 269 265 268 270 271
266 262 261 258 255 257 262 268 273 277 274 268 265 267 263 259 257 262 264 267 269 273 276 277 277 277 275 277 275 271 268 265 263 264 262 262 266 269 274 275 269 267 269
266 261 259 258 258 258 263 271 275 274 272 275 279 282 286 284 283 277 274 272 274 274 275 277 276 279 280 280 282 281 278 276 273 267 267 264 264 262 265 268 270 273 268
268 265 261 260 261 260 261 267 271 274 277 284 292 298 299 292 284 279 276 273 275 278 281 282 283 283 285 286 287 283 280 280 279 278 273 270 266 265 263 261 263 264 269
272 267 266 262 261 261 263 265 266 270 275 283 289 294 295 292 289 285 281 281 282 283 284 286 287 290 291 290 285 284 283 279 277 277 274 274 275 277 271 266 262 258 262
284 277 273 268 265 265 265 265 267 269 274 280 285 290 293 293 289 285 281 279 281 283 285 288 293 295 296 297 293 286 279 275 275 277 282 283 282 280 278 275 270 265 257
288 283 274 267 263 262 262 263 265 267 272 277 281 285 289 288 285 282 279 280 282 285 291 294 294 297 299 296 291 288 285 284 284 284 281 279 279 276 273 270 270 269 266
282 282 279 271 265 262 261 263 265 267 271 274 279 281 283 285 286 285 284 283 284 286 290 293 297 300 300 295 287 282 280 282 284 286 288 288 283 280 273 270 269 269 269
280 279 280 274 270 265 262 264 264 267 270 275 278 280 281 283 285 286 284 286 290 293 294 296 297 298 297 287 280 276 274 273 281 275 278 285 287 288 283 280 277 273 273
274 274 272 272 270 269 267 266 265 267 270 273 274 277 279 280 283 286 286 287 288 288 290 295 297 299 292 278 271 271 272 271 271 274 275 279 280 279 279 275 272 274 275
269 269 272 268 266 268 268 267 268 266 267 268 270 272 274 278 280 282 282 283 284 286 290 295 296 295 285 279 277 277 278 278 278 276 277 279 279 278 275 273 272 274 277
264 268 269 266 262 266 269 270 272 271 271 271 270 271 273 274 276 277 278 279 282 284 288 291 293 291 287 282 279 278 280 284 284 284 281 277 276 275 275 274 275 275 274
270 272 267 258 260 263 272 277 279 276 272 269 269 269 270 271 273 274 276 278 281 285 288 290 292 291 291 291 289 285 283 284 289 289 286 282 276 273 271 270 272 273 274
271 267 254 252 254 267 282 287 285 279 276 271 269 268 268 268 270 273 277 279 282 286 289 289 293 294 297 297 297 300 304 302 295 291 293 288 281 274 268 265 266 268 269
264 264 253 246 256 279 299 302 300 289 280 276 272 269 269 268 269 272 277 279 283 284 284 289 291 293 296 299 299 304 305 303 301 298 294 290 288 282 277 271 267 267 267
256 252 253 253 259 291 317 318 307 295 284 280 273 270 272 271 272 276 277 280 282 282 283 288 294 298 301 302 300 300 299 300 300 303 302 295 287 283 279 274 271 269 268
266 255 262 257 259 272 298 316 312 303 286 276 273 272 274 274 275 275 275 277 279 281 286 291 296 300 302 301 301 300 298 298 300 297 299 298 290 285 282 278 274 273 271
274 264 272 262 262 266 286 301 312 315 296 281 274 273 276 275 273 273 274 277 279 284 287 291 295 300 301 301 300 298 299 299 298 296 293 292 291 290 286 283 282 279 277
Height
3169 3169 3169 3169 3169 3171 3171 3172 3172 3172 3173 3173 3174 3174 3175 3176 3176 3176 3177 3177 3177 3178 3178 3179 3180 3181 3182 3183 3184 3184 3185 3186 3188 3189 3189 3189 3189 3190 3190 3191 3190 3190 3189
3168 3169 3169 3169 3169 3170 3170 3170 3170 3170 3170 3170 3170 3171 3172 3173 3174 3175 3175 3176 3176 3176 3176 3176 3177 3178 3179 3179 3180 3180 3182 3183 3184 3186 3187 3188 3188 3188 3188 3189 3190 3190 3189
3166 3167 3168 3168 3169 3169 3170 3170 3170 3170 3170 3169 3170 3170 3171 3172 3171 3172 3173 3174 3174 3175 3175 3174 3175 3176 3176 3177 3178 3178 3178 3179 3180 3181 3183 3184 3186 3187 3187 3187 3188 3189 3189
3165 3167 3167 3168 3168 3169 3169 3169 3169 3169 3168 3168 3168 3168 3169 3169 3169 3170 3171 3171 3172 3173 3173 3173 3173 3173 3173 3173 3174 3175 3176 3177 3178 3178 3179 3180 3182 3182 3185 3186 3187 3187 3187
3163 3165 3166 3166 3167 3168 3169 3169 3168 3168 3168 3167 3167 3167 3167 3167 3167 3168 3169 3169 3170 3171 3171 3172 3172 3172 3171 3171 3171 3172 3173 3173 3174 3175 3176 3176 3178 3179 3180 3182 3183 3185 3186
3161 3162 3163 3164 3165 3166 3166 3166 3167 3167 3166 3166 3166 3166 3166 3165 3166 3166 3167 3167 3167 3167 3167 3168 3169 3169 3168 3168 3168 3168 3169 3169 3170 3171 3172 3172 3173 3175 3177 3178 3180 3181 3182
3160 3161 3161 3162 3163 3163 3163 3164 3163 3163 3163 3163 3164 3164 3163 3163 3163 3163 3164 3164 3164 3165 3165 3166 3166 3166 3166 3166 3166 3166 3166 3166 3166 3167 3167 3167 3168 3170 3172 3173 3174 3176 3177
3158 3159 3159 3159 3160 3160 3160 3161 3160 3160 3160 3160 3160 3160 3160 3159 3159 3159 3160 3160 3161 3161 3161 3162 3162 3163 3163 3163 3163 3163 3163 3164 3164 3164 3164 3164 3164 3164 3166 3168 3169 3170 3171
3156 3156 3156 3157 3157 3157 3157 3156 3157 3157 3157 3157 3156 3156 3156 3156 3156 3155 3155 3156 3156 3157 3157 3157 3158 3158 3158 3158 3158 3159 3159 3160 3161 3160 3160 3162 3161 3161 3161 3163 3163 3165 3167
3152 3152 3153 3153 3153 3154 3154 3154 3154 3154 3153 3153 3152 3152 3151 3151 3151 3150 3151 3151 3151 3151 3151 3152 3152 3152 3152 3152 3153 3153 3153 3154 3155 3155 3156 3157 3157 3157 3157 3159 3159 3159 3161
3148 3148 3148 3148 3149 3150 3150 3149 3149 3150 3149 3148 3148 3148 3147 3146 3145 3145 3145 3145 3145 3146 3146 3145 3146 3145 3145 3146 3146 3146 3146 3147 3147 3148 3149 3150 3152 3153 3154 3153 3155 3155 3155
3143 3142 3143 3143 3144 3144 3144 3144 3144 3144 3143 3144 3143 3142 3141 3141 3140 3140 3140 3140 3140 3140 3140 3140 3140 3139 3139 3138 3139 3139 3139 3139 3140 3141 3142 3143 3144 3146 3147 3148 3149 3150 3150
3137 3137 3138 3138 3138 3138 3139 3139 3138 3138 3138 3138 3137 3137 3137 3136 3135 3135 3135 3134 3134 3134 3135 3134 3133 3132 3132 3132 3132 3132 3132 3133 3133 3134 3136 3136 3137 3139 3140 3141 3142 3143 3144
3132 3132 3133 3133 3133 3133 3133 3133 3133 3133 3133 3132 3132 3132 3131 3130 3131 3130 3129 3128 3129 3129 3128 3128 3127 3126 3125 3124 3123 3123 3124 3125 3125 3127 3129 3130 3132 3132 3133 3134 3133 3134 3135
3126 3126 3126 3125 3126 3126 3126 3126 3126 3127 3126 3127 3126 3125 3125 3125 3125 3123 3123 3123 3122 3122 3122 3121 3121 3120 3118 3117 3116 3117 3117 3118 3119 3121 3121 3122 3123 3124 3125 3125 3125 3125 3125
3118 3118 3119 3118 3118 3119 3119 3119 3121 3121 3121 3121 3120 3119 3118 3118 3117 3116 3117 3116 3116 3115 3114 3114 3113 3112 3111 3110 3110 3109 3109 3110 3111 3113 3114 3115 3115 3116 3117 3116 3116 3117 3117
3111 3111 3111 3111 3111 3111 3111 3112 3113 3113 3113 3114 3113 3112 3112 3111 3110 3110 3109 3109 3110 3109 3107 3106 3104 3103 3103 3104 3104 3104 3103 3102 3102 3103 3103 3104 3106 3107 3107 3107 3106 3106 3106
3103 3104 3104 3104 3104 3104 3104 3105 3106 3106 3106 3106 3106 3106 3104 3103 3103 3102 3102 3103 3103 3102 3100 3099 3098 3097 3097 3097 3096 3094 3095 3094 3094 3093 3093 3095 3096 3097 3098 3096 3095 3094 3095
3094 3094 3095 3095 3096 3097 3097 3097 3097 3098 3098 3099 3099 3098 3097 3096 3096 3095 3095 3094 3094 3093 3092 3091 3091 3089 3089 3087 3086 3085 3087 3086 3085 3086 3087 3086 3086 3086 3085 3084 3083 3083 3083
3085 3085 3086 3087 3088 3089 3089 3090 3090 3091 3090 3090 3090 3089 3089 3089 3088 3087 3087 3087 3087 3086 3084 3083 3082 3080 3079 3077 3077 3076 3077 3077 3075 3076 3076 3076 3077 3076 3075 3076 3075 3075 3073
3076 3077 3078 3080 3082 3082 3083 3083 3083 3083 3083 3082 3082 3082 3081 3081 3080 3080 3079 3080 3079 3078 3076 3074 3073 3072 3072 3068 3067 3067 3066 3066 3066 3067 3066 3066 3066 3066 3066 3067 3067 3066 3064
3069 3069 3071 3074 3075 3077 3077 3077 3075 3075 3074 3074 3073 3073 3073 3073 3074 3073 3073 3072 3070 3069 3068 3067 3065 3065 3063 3061 3057 3052 3049 3053 3053 3053 3053 3054 3053 3053 3053 3053 3054 3055 3055
3063 3064 3065 3067 3069 3070 3070 3069 3068 3067 3066 3065 3066 3066 3065 3065 3064 3064 3064 3061 3061 3060 3059 3058 3058 3056 3054 3054 3050 3044 3039 3037 3034 3039 3041 3040 3039 3040 3040 3041 3040 3040 3040
3057 3058 3060 3061 3061 3062 3062 3062 3062 3060 3058 3059 3057 3057 3058 3057 3056 3056 3054 3053 3053 3051 3050 3051 3049 3046 3043 3042 3042 3040 3036 3031 3024 3021 3026 3028 3028 3028 3027 3027 3026 3026 3026
3052 3054 3054 3055 3055 3055 3053 3055 3055 3052 3050 3050 3050 3050 3049 3048 3048 3047 3045 3044 3044 3042 3041 3040 3039 3037 3035 3033 3031 3028 3027 3023 3019 3014 3011 3012 3012 3014 3012 3012 3012 3012 3011
3046 3047 3047 3048 3047 3047 3046 3047 3047 3046 3043 3041 3042 3041 3040 3038 3038 3037 3036 3035 3035 3033 3032 3030 3029 3029 3027 3025 3022 3021 3016 3013 3011 3006 3002 3003 2996 2999 2996 2997 2994 2996 2996